Regional Weather Roundup
Issued by NWS

Home | Current Version | Previous Version | Text Only | Print | Product List | Glossary Off
Versions: 1 2 3 4 5 6 7 8 9 10 11 12 13 14 15 16 17 18 19 20 21 22 23 24 25 26 27 28 29 30 31 32 33 34 35 36 37 38 39 40 41 42 43 44 45 46 47 48 49 50

000
ASUS44 KMEG 260700
RWRTN
TENNESSEE HOURLY STATE WEATHER ROUNDUP
NATIONAL WEATHER SERVICE MEMPHIS TN
200 AM CDT SAT JUL 26 2014

TNZ002-004-019-021-049-052-054-088>092-260800-
WEST TENNESSEE

CITY           SKY/WX    TMP DP  RH WIND       PRES   REMARKS
MEMPHIS INTL   PTCLDY    72  65  78 S6        29.99F
NWS MEMPHIS      N/A     70 N/A N/A MISG        N/A
JACKSON        CLEAR     66  63  90 CALM      30.00S
DYERSBURG      CLEAR     70  57  64 CALM      29.99F
UNION CITY     CLEAR     64  64 100 CALM      29.98F
PARIS          CLEAR     63  61  94 CALM      30.01S
LEXINGTON      CLEAR     64  64 100 CALM      30.00F
SAVANNAH       CLEAR     64  64 100 CALM      30.02S
$$

TNZ008-025-027-028-033-062-065-066-260800-
NORTH MIDDLE TENNESSEE

CITY           SKY/WX    TMP DP  RH WIND       PRES   REMARKS
NASHVILLE      PTCLDY    69  64  84 S3        30.02F
CLARKSVILLE    CLEAR     64  62  93 SE3       30.01S
COOKEVILLE     CLEAR     61  61 100 CALM      30.04F
CROSSVILLE     PTCLDY    61  57  87 CALM      30.09S
$$

TNZ061-075-076-078-094-096-097-260800-
SOUTH MIDDLE TENNESSEE

CITY           SKY/WX    TMP DP  RH WIND       PRES   REMARKS
FAYETTEVILLE   CLEAR     66  63  88 CALM      30.04F
TULLAHOMA      CLEAR     63  61  94 CALM      30.05F
WINCHESTER     CLEAR     63  63 100 CALM      30.05S
COLUMBIA       CLEAR     66  64  94 CALM      30.01F
SHELBYVILLE    CLEAR     66  64  94 CALM      30.04F
$$

TNZ017-018-042-046-047-260800-
NORTHEAST TENNESSEE

CITY           SKY/WX    TMP DP  RH WIND       PRES   REMARKS
TRI CITIES     PTCLDY    63  60  90 CALM      30.05F
ELIZABETHTON   SUNNY     63  61  94 E3        30.06F
$$

TNZ012-013-036-069-073-074-260800-
CENTRAL EAST TENNESSEE

CITY           SKY/WX    TMP DP  RH WIND       PRES   REMARKS
KNOXVILLE      PTCLDY    67  63  87 CALM      30.02F
OAK RIDGE      CLEAR     67  64  90 CALM      30.05F
GATLINBURG     SUNNY     66  63  88 CALM      30.03F
$$

TNZ083-085-099-260800-
SOUTHEAST TENNESSEE

CITY           SKY/WX    TMP DP  RH WIND       PRES   REMARKS
CHATTANOOGA    CLEAR     69  64  84 CALM      30.04S
$$

SKY/WX REPORTED AS FAIR MEANS FEW OR NO CLOUDS BELOW
12 THOUSAND FEET.



USA.gov is the U.S. government's official web portal to all federal, state and local government web resources and services.